TimeAST,TemperatureF,Dew PointF,Humidity,Sea Level PressureIn,VisibilityMPH,Wind Direction,Wind SpeedMPH,Gust SpeedMPH,PrecipitationIn,Events,Conditions,WindDirDegrees,DateUTC
12:00 AM,80.6,71.6,74,29.95,6.2,East,15.0,-,N/A,,Mostly Cloudy,90,2013-10-25 04:00:00
1:00 AM,80.6,71.6,74,29.92,6.2,East,8.1,-,N/A,,Scattered Clouds,90,2013-10-25 05:00:00
2:00 AM,78.8,71.6,78,29.89,6.2,East,9.2,-,N/A,,Scattered Clouds,80,2013-10-25 06:00:00
3:00 AM,80.6,71.6,74,29.89,6.2,East,12.7,-,N/A,,Scattered Clouds,90,2013-10-25 07:00:00
4:00 AM,80.6,71.6,74,29.89,6.2,East,12.7,-,N/A,,Partly Cloudy,90,2013-10-25 08:00:00
5:00 AM,80.6,71.6,74,29.89,-9999.0,East,9.2,-,N/A,Rain,Light Rain Showers,90,2013-10-25 09:00:00
7:00 AM,80.6,73.4,79,29.95,6.2,East,10.4,-,N/A,,Scattered Clouds,90,2013-10-25 11:00:00
8:00 AM,84.2,73.4,70,29.95,6.2,East,18.4,-,N/A,,Partly Cloudy,100,2013-10-25 12:00:00
9:00 AM,84.2,75.2,74,29.98,6.2,ESE,20.7,-,N/A,,Partly Cloudy,110,2013-10-25 13:00:00
10:00 AM,87.8,75.2,66,29.98,6.2,ESE,18.4,-,N/A,,Partly Cloudy,110,2013-10-25 14:00:00
11:00 AM,87.8,75.2,66,29.95,6.2,ESE,20.7,-,N/A,,Scattered Clouds,110,2013-10-25 15:00:00
12:00 PM,78.8,73.4,83,29.95,3.7,ESE,16.1,-,N/A,Rain,Light Rain Showers,110,2013-10-25 16:00:00
1:00 PM,80.6,75.2,84,29.92,6.2,Calm,Calm,-,N/A,Rain,Light Rain Showers,0,2013-10-25 17:00:00
2:00 PM,80.6,75.2,84,29.92,5.0,East,18.4,-,N/A,Rain-Thunderstorm,Light Thunderstorms and Rain,100,2013-10-25 18:00:00
3:00 PM,78.8,75.2,89,29.89,6.2,ESE,16.1,-,N/A,Rain,Light Rain Showers,110,2013-10-25 19:00:00
4:00 PM,77.0,75.2,94,29.89,6.2,NE,5.8,-,N/A,Rain,Light Rain,50,2013-10-25 20:00:00
5:00 PM,77.0,75.2,94,29.89,3.7,Calm,Calm,-,N/A,Rain,Light Rain,0,2013-10-25 21:00:00
6:00 PM,77.0,75.2,94,29.89,3.7,Calm,Calm,-,N/A,Rain,Light Rain,0,2013-10-25 22:00:00
7:00 PM,80.6,75.2,84,29.89,6.2,SSE,9.2,-,N/A,,Mostly Cloudy,150,2013-10-25 23:00:00
8:00 PM,82.4,78.8,89,29.95,6.2,ESE,16.1,-,N/A,,Mostly Cloudy,120,2013-10-26 00:00:00
9:00 PM,80.6,75.2,84,29.95,6.2,ESE,20.7,-,N/A,,Mostly Cloudy,110,2013-10-26 01:00:00
10:00 PM,80.6,73.4,79,29.98,6.2,East,13.8,-,N/A,,Mostly Cloudy,90,2013-10-26 02:00:00
11:00 PM,80.6,73.4,79,29.95,6.2,East,16.1,-,N/A,,Mostly Cloudy,90,2013-10-26 03:00:00